Regional Weather Roundup
Issued by NWS

Home | Current Version | Previous Version | Text Only | Print | Product List | Glossary Off
Versions: 1 2 3 4 5 6 7 8 9 10 11 12 13 14 15 16 17 18 19 20 21 22 23 24 25 26 27 28 29 30 31 32 33 34 35 36 37 38 39 40 41 42 43 44 45 46 47 48 49 50

000
ASUS43 KOAX 291210
RWRNE

WEATHER ROUNDUP FOR NEBRASKA
NATIONAL WEATHER SERVICE OMAHA NE
700 AM CDT MON AUG 29 2016

NOTES: SATELLITE DATA IS BEING USED TO AUGMENT CLOUD COVER ABOVE
       12000 FEET.
       "FAIR" INDICATES FEW OR NO CLOUDS BELOW 12,000 FEET WITH NO
       SIGNIFICANT WEATHER AND/OR OBSTRUCTIONS TO VISIBILITY.

  * THESE STATIONS DO NOT REPORT WEATHER SUCH AS RAIN...SNOW OR FOG.

NEZ001>004-019>022-054>056-291300-
NEBRASKA PANHANDLE

CITY           SKY/WX    TMP DP  RH WIND       PRES   REMARKS
SCOTTSBLUFF    PTCLDY    55  49  80 E3        30.20R
6HR MIN TEMP:  53; 6HR MAX TEMP:  63;

ALLIANCE       CLEAR     48  46  93 W3        30.19R
6HR MIN TEMP:  48; 6HR MAX TEMP:  61;

CHADRON        CLEAR     54  50  86 SW7       30.15R
6HR MIN TEMP:  53; 6HR MAX TEMP:  71;

KIMBALL        CLOUDY    54  50  87 W5        30.25R
SIDNEY         CLEAR     56  50  80 NW10      30.23R
6HR MIN TEMP:  53; 6HR MAX TEMP:  61;

$$

NEZ057>060-069>072-079>082-291300-
SOUTHWEST NEBRASKA

CITY           SKY/WX    TMP DP  RH WIND       PRES   REMARKS
NORTH PLATTE   MOCLDY    62  60  93 E3        30.17S
6HR MIN TEMP:  62; 6HR MAX TEMP:  65;

IMPERIAL       MOCLDY    63  62  97 SE12      30.20R
6HR MIN TEMP:  61; 6HR MAX TEMP:  68;

LEXINGTON      CLOUDY    67  63  86 SW7       30.17S
MCCOOK         LGT RAIN  65  64  97 E7        30.19S FOG
6HR MIN TEMP:  65; 6HR MAX TEMP:  69; 6HR PCP:  0.57;

OGALLALA       PTCLDY    60  58  91 CALM      30.19R
$$

NEZ005>010-023>029-035>040-094-291300-
NORTH CENTRAL NEBRASKA

CITY           SKY/WX    TMP DP  RH WIND       PRES   REMARKS
VALENTINE      CLEAR     59  56  89 S6        30.15R
6HR MIN TEMP:  58; 6HR MAX TEMP:  72;

AINSWORTH      CLEAR     64  64  98 S9        30.15S
BROKEN BOW     MOCLDY    66  64  93 SW9       30.16S
6HR MIN TEMP:  59; 6HR MAX TEMP:  69;

O`NEILL        MOCLDY    66  63  92 S5        30.14S
ORD            CLOUDY    65  60  84 SE5       30.14R
6HR MIN TEMP:  63; 6HR MAX TEMP:  72;

THEDFORD       CLEAR     65  63  94 S7        30.19R
$$

NEZ041-046>049-061>064-073>077-083>087-291300-
SOUTH CENTRAL NEBRASKA

CITY           SKY/WX    TMP DP  RH WIND       PRES   REMARKS
GRAND ISLAND   PTCLDY    65  62  90 NE6       30.17R
6HR MIN TEMP:  65; 6HR MAX TEMP:  70; 6HR PCP:  0.01;

AURORA         CLOUDY    65  65 100 CALM      30.17R
HASTINGS       CLOUDY    64  62  93 CALM      30.19R
6HR MIN TEMP:  64; 6HR MAX TEMP:  68; 6HR PCP:  0.28;

HEBRON         MOCLDY    65  64  96 CALM      30.16R
HOLDREGE       CLOUDY    64  62  91 CALM      30.16S
KEARNEY *      CLOUDY    66  61  82 SE3       30.16R
YORK           CLOUDY    64  63  94 CALM      30.17R
$$

NEZ011>018-030>034-042>045-291300-
NORTHEAST NEBRASKA

CITY           SKY/WX    TMP DP  RH WIND       PRES   REMARKS
NORFOLK        MOCLDY    67  65  93 S6        30.14R
6HR MIN TEMP:  65; 6HR MAX TEMP:  70;

ALBION         CLOUDY    64  62  91 CALM      30.15R
BLAIR          CLOUDY    69  67  94 CALM      30.16R
FREMONT        CLOUDY    68  67  96 SE3       30.16R
TEKAMAH        MOCLDY    66  64  93 SE6       30.15R
6HR MIN TEMP:  65; 6HR MAX TEMP:  68;

WAYNE          CLOUDY    66  65  97 CALM      30.15R
$$

NEZ050>053-065>068-078-088>093-291300-
SOUTHEAST NEBRASKA

CITY           SKY/WX    TMP DP  RH WIND       PRES   REMARKS
LINCOLN        PTCLDY    69  67  93 CALM      30.17R
6HR MIN TEMP:  68; 6HR MAX TEMP:  73;

OMAHA EPPLEY   CLOUDY    71  66  84 S5        30.16R
6HR MIN TEMP:  70; 6HR MAX TEMP:  72;

BEATRICE       PTCLDY    68  67  98 CALM      30.16R FOG
FALLS CITY     CLEAR     68  67  96 SE3       30.14R
6HR MIN TEMP:  67; 6HR MAX TEMP:  70;

NEBRASKA CITY  MOCLDY    67  67 100 NE3       30.17R FOG
PLATTSMOUTH    CLOUDY    68  67  98 SE5       30.16R
$$

NEZ044-045-051>053-067-291300-
OMAHA AREA

CITY           SKY/WX    TMP DP  RH WIND       PRES   REMARKS
OMAHA EPPLEY   CLOUDY    71  66  84 S5        30.16R
6HR MIN TEMP:  70; 6HR MAX TEMP:  72;

BLAIR          CLOUDY    69  67  94 CALM      30.16R
FREMONT        CLOUDY    68  67  96 SE3       30.16R
MILLARD        MOCLDY    70  67  92 CALM      30.16R
OFFUTT AFB     MOCLDY    67  67 100 E6        30.16R
PLATTSMOUTH    CLOUDY    68  67  98 SE5       30.16R
WAHOO          FAIR      66  64  95 SE3       30.16R
$$



USA.gov is the U.S. government's official web portal to all federal, state and local government web resources and services.